RH
93 97 97 90 80 72 65 57 50 45 41 37 33 30 28 26 25 24 22 19 16 14 12 11 10 11 12 14 16 17 16 15 14 12 10 8 8 9 9 8 7 6 5 5 5 5 5 4 4 4 4 5 5 6 6 6 6 6 6 6 5 5 5 5 5 5 5 4 4 4 5 5 5 5 5 5 5 5 5 5 6 6 6 7 7
99 96 89 80 72 65 57 50 44 39 34 32 31 28 26 26 26 23 19 16 14 12 11 11 11 12 15 17 17 16 15 13 11 9 9 9 9 9 8 7 6 6 5 5 5 4 5 4 5 5 6 6 6 6 6 5 5 5 4 4 4 4 4 4 4 4 4 4 4 4 4 4 4 4 4 4 4 4 4 4 4 4 4 5 5
93 87 79 72 65 57 50 43 36 32 32 31 28 27 28 28 25 20 17 14 12 11 11 11 12 15 17 17 16 15 13 11 9 9 9 10 9 8 6 6 6 6 5 5 5 5 5 6 6 6 6 6 6 5 5 4 4 4 3 3 3 3 3 3 4 4 4 4 4 4 4 4 4 4 4 4 4 4 4 4 4 4 4 4 4
85 80 72 63 56 50 43 36 31 31 32 29 27 29 30 27 22 18 14 12 11 11 11 12 15 17 17 16 15 13 11 10 10 10 10 9 7 6 6 6 6 5 5 5 6 6 7 7 7 6 6 5 5 4 4 3 3 3 3 3 3 4 4 4 4 4 4 4 4 4 4 4 4 4 4 4 4 4 4 4 4 4 4 4 4
80 71 62 55 51 44 36 30 31 32 29 28 30 32 30 25 20 15 13 12 12 12 13 15 17 17 16 15 13 11 10 11 11 11 9 7 6 6 6 5 5 5 6 6 7 8 7 7 6 5 5 4 4 4 3 3 3 3 4 4 4 4 4 4 4 4 4 4 4 4 4 4 4 4 4 4 4 4 4 4 4 4 4 4 4
70 60 55 52 46 36 30 30 31 30 28 30 34 33 27 22 17 14 13 12 12 13 15 17 17 16 15 13 11 10 11 12 11 9 7 6 6 6 5 5 5 6 7 8 8 8 7 6 5 4 4 4 3 4 3 3 4 4 4 4 4 4 4 4 4 4 4 4 4 5 4 4 4 4 4 4 4 5 4 5 4 4 5 5 5
59 55 54 47 37 30 29 31 30 29 31 35 36 31 24 19 15 14 13 13 13 15 17 17 16 15 14 11 10 11 12 11 9 7 7 6 6 6 5 6 6 7 8 8 8 8 6 6 5 4 4 4 4 4 4 4 4 4 4 4 4 4 4 4 4 4 4 4 4 5 4 5 5 4 4 4 4 5 4 5 5 4 5 5 5
54 55 49 38 30 28 31 31 29 31 35 37 34 27 21 17 14 14 13 13 15 17 17 17 15 14 12 11 11 12 11 9 7 7 7 6 6 6 6 7 8 8 9 8 8 7 6 5 4 4 4 4 4 4 4 4 4 4 4 4 4 4 4 4 4 4 4 4 4 5 4 5 5 4 5 4 4 5 5 5 5 4 5 5 5
55 50 39 30 28 30 31 30 31 36 40 37 30 24 19 16 14 14 14 15 17 18 17 16 14 13 11 11 12 12 9 7 7 7 7 6 6 6 7 8 9 9 9 8 7 6 5 5 4 4 5 4 4 5 4 4 4 4 4 4 4 4 4 4 4 4 4 4 4 5 5 5 5 4 5 5 5 5 4 5 5 4 5 5 5
51 41 31 28 30 32 32 32 36 42 41 34 26 21 17 15 14 14 15 17 18 18 17 15 13 12 11 13 12 9 7 8 8 7 6 6 6 7 8 10 10 10 9 8 7 6 5 4 4 4 5 5 5 5 4 4 5 4 5 5 5 5 4 5 5 5 5 5 5 5 5 5 6 5 5 6 5 5 5 5 5 5 5 5 5
43 33 28 29 32 33 33 36 42 44 39 30 23 19 16 15 15 15 17 19 19 18 16 14 12 12 13 13 10 8 8 8 7 7 7 7 8 9 10 11 11 10 10 8 7 6 5 5 5 5 5 5 5 5 5 5 5 5 5 5 5 5 5 5 5 5 5 5 5 6 6 6 6 6 6 6 6 6 6 6 6 6 6 5 5
36 30 30 32 34 35 37 42 46 43 34 27 21 18 16 15 15 17 19 20 19 18 16 13 12 13 14 12 8 8 9 8 7 8 8 8 10 12 13 13 12 11 10 9 7 6 5 5 5 5 5 5 5 5 5 5 5 6 6 6 6 6 6 5 5 5 5 5 5 6 6 6 6 6 6 7 7 7 6 6 6 6 6 6 6
32 30 32 34 36 38 42 46 46 39 30 24 20 17 16 16 17 20 21 21 19 17 14 13 13 14 13 10 8 9 9 8 8 8 9 11 13 14 14 14 14 13 11 10 8 7 6 6 6 6 6 5 5 5 6 6 6 6 6 6 6 6 6 6 6 5 5 5 5 5 5 6 6 6 7 7 7 7 7 7 7 7 7 7 6
31 31 34 37 40 42 46 48 44 35 26 21 19 17 17 18 21 23 23 21 19 16 14 13 14 14 11 9 9 10 9 8 9 9 10 13 14 15 15 15 14 13 12 11 9 7 6 6 7 6 6 6 6 6 6 6 6 6 6 6 6 6 6 6 6 6 6 6 6 6 6 6 6 6 7 7 7 7 7 7 7 7 7 7 7
33 34 37 41 44 46 48 47 40 31 24 20 19 18 19 21 24 25 23 21 18 15 14 14 15 13 10 9 10 11 9 9 10 10 11 14 16 16 15 15 15 14 13 11 10 8 7 7 8 7 7 7 6 6 7 7 6 6 6 6 6 6 6 6 6 6 6 6 6 6 6 6 7 7 7 7 7 7 7 8 8 8 8 7 7
35 38 42 46 47 48 48 45 36 28 23 20 19 19 22 25 27 26 23 20 17 15 14 15 15 12 10 11 12 10 9 10 11 11 13 16 17 17 17 17 17 16 14 13 12 10 8 8 8 8 7 8 7 7 7 7 7 7 6 6 6 6 6 6 6 6 6 6 7 7 7 7 7 7 7 7 8 8 8 8 8 8 8 8 8
39 43 48 50 49 49 48 42 33 26 22 20 20 22 26 28 28 26 23 19 16 15 15 16 15 12 11 12 12 10 10 12 12 13 16 19 19 19 20 20 20 19 17 16 14 12 10 8 9 9 8 8 8 8 8 8 8 8 8 8 8 7 8 7 7 7 7 7 7 7 7 8 7 7 8 8 8 8 8 9 9 8 9 8 8
44 49 54 53 50 49 47 39 30 25 22 20 22 26 30 31 29 26 22 19 16 15 16 17 15 12 12 13 12 11 12 14 14 15 19 20 20 21 23 23 23 21 19 17 16 14 12 10 10 10 10 9 9 9 9 8 9 9 9 9 9 8 8 8 8 8 8 8 8 8 8 8 8 8 8 8 9 9 9 9 9 9 9 8 8
50 56 58 55 50 48 45 36 28 24 22 22 25 30 33 32 30 26 22 18 16 16 17 18 15 12 13 13 12 12 14 15 15 17 20 21 21 22 24 24 24 23 21 19 17 15 15 14 12 11 11 10 10 10 9 9 9 9 9 8 8 8 9 9 9 9 9 9 9 9 9 9 9 9 9 9 9 9 9 10 9 10 10 9 8
58 62 61 54 49 48 43 34 27 24 22 24 30 34 35 33 30 26 21 18 17 17 18 18 15 13 14 14 13 14 17 17 16 18 21 22 22 23 25 25 26 26 24 22 19 18 19 20 17 13 12 12 11 11 10 10 9 9 9 9 9 10 10 10 10 10 10 10 10 10 10 10 10 10 10 10 10 10 10 10 10 10 10 10 9
64 66 61 52 48 47 42 32 26 24 24 28 34 37 37 34 30 25 21 18 18 18 20 19 16 14 15 15 14 17 19 18 18 20 22 23 23 24 27 28 27 27 26 24 22 22 23 25 23 19 15 14 13 13 12 11 10 10 10 11 11 11 11 11 11 11 11 11 11 11 11 11 10 10 10 10 10 10 10 11 11 11 11 10 10
69 67 59 50 47 46 39 30 25 24 26 33 39 39 37 34 29 23 20 19 18 19 21 19 16 15 16 15 16 19 20 19 19 20 23 24 24 25 28 28 28 27 27 27 26 27 28 29 29 25 20 16 15 15 14 14 13 12 12 12 12 12 12 12 12 13 13 13 13 13 13 13 12 11 11 11 11 11 12 12 12 12 12 11 11
71 65 55 49 48 46 36 28 24 25 30 37 42 41 38 33 27 22 20 19 19 21 22 20 16 16 17 16 18 21 21 20 19 21 23 25 25 25 26 27 28 29 30 31 32 32 32 32 32 31 27 22 18 16 16 16 15 14 14 13 13 12 13 13 13 13 13 13 13 13 13 13 13 12 12 12 12 12 12 12 13 13 12 12 12
71 63 53 48 49 45 33 26 25 27 34 42 43 41 38 32 26 22 20 20 20 22 23 19 17 17 17 17 21 24 24 21 20 22 25 26 25 25 25 26 30 32 33 36 38 37 36 34 33 34 34 31 25 19 17 17 17 17 16 15 14 13 13 14 14 13 14 13 14 14 15 15 15 15 14 14 14 13 13 13 13 14 13 13 12
69 61 52 49 50 42 31 26 26 31 39 45 44 42 38 31 25 22 21 20 21 24 23 19 17 18 18 19 24 27 26 23 22 24 27 27 26 26 26 27 32 36 38 42 44 43 41 37 34 35 39 40 36 30 25 22 20 20 20 19 18 17 16 16 16 16 16 17 16 16 16 16 17 17 16 15 15 14 15 14 14 14 14 14 14
67 59 51 51 49 39 29 26 28 35 44 47 45 42 37 29 24 23 22 21 23 25 24 19 18 19 19 21 26 29 28 25 23 24 27 28 28 28 28 29 31 34 38 43 45 46 44 40 38 39 43 46 47 44 39 33 28 26 27 26 26 26 25 24 23 22 21 20 19 18 17 16 17 17 16 16 16 15 15 15 15 15 15 15 14
65 56 51 52 47 35 28 27 30 40 48 48 45 42 35 28 25 24 23 22 24 26 24 19 18 20 20 22 27 30 29 27 23 23 26 28 29 30 29 29 30 30 34 39 43 45 45 43 41 41 42 45 49 50 50 47 43 41 39 38 36 35 34 33 31 29 27 24 22 20 19 17 17 17 17 17 17 17 17 17 16 17 17 16 16
62 55 53 52 44 33 28 28 34 45 51 49 46 42 34 28 25 25 24 23 25 27 24 19 19 20 21 24 28 30 31 29 24 23 26 30 32 33 32 31 31 31 33 39 43 45 45 44 43 43 41 41 44 49 53 56 56 55 55 53 50 46 43 40 38 36 33 29 27 25 23 21 20 20 19 19 19 19 18 18 18 18 18 18 17
61 56 54 50 41 32 28 30 38 49 52 49 46 41 33 28 27 27 25 24 27 28 23 19 20 21 22 27 30 33 35 33 28 27 29 32 35 37 36 35 35 34 36 40 44 46 46 47 47 47 45 44 44 47 53 58 61 62 63 64 64 64 62 58 53 48 43 39 37 34 31 28 26 24 22 21 20 20 19 19 19 19 19 19 19
62 57 55 49 38 31 30 32 42 52 53 49 47 41 33 28 28 28 26 25 29 28 23 20 22 22 25 30 33 35 39 37 33 30 30 32 37 40 40 38 37 37 38 40 42 46 48 51 53 53 53 52 50 50 53 58 63 69 71 71 72 74 76 75 71 65 59 55 51 47 42 38 35 32 29 27 24 22 21 20 20 20 20 20 20
63 58 55 47 36 31 31 35 46 54 53 49 47 40 32 29 29 29 27 27 30 29 23 21 23 24 27 33 35 37 41 42 37 33 31 32 35 39 42 42 40 40 41 41 41 45 50 54 57 57 57 58 57 56 57 57 61 67 74 78 80 80 81 82 82 80 78 74 69 63 57 52 48 43 37 33 30 27 25 23 23 22 22 21 21
63 59 54 44 35 33 33 38 49 57 53 49 46 39 32 31 31 29 27 29 31 29 23 22 25 26 29 35 37 38 43 45 42 36 32 32 33 35 39 43 43 43 43 42 42 44 49 55 59 61 61 61 61 62 62 61 61 63 68 75 83 87 88 88 87 87 88 87 84 79 74 70 65 59 52 45 39 34 30 28 28 27 25 23 22
63 60 53 41 35 35 34 40 53 57 53 50 46 38 33 33 32 30 29 30 32 29 23 24 26 27 31 37 38 40 46 49 48 42 35 33 33 33 35 39 43 44 43 42 42 43 46 51 58 62 64 64 64 64 65 65 66 66 65 67 72 79 85 89 90 90 90 90 89 89 87 84 80 74 69 64 58 50 43 37 33 32 30 29 26
65 61 50 40 37 35 35 44 55 57 53 50 45 37 34 34 34 31 30 32 33 28 23 25 28 29 34 39 40 42 48 51 52 48 41 35 35 35 34 34 37 40 41 42 43 43 44 48 54 60 65 67 66 66 66 66 67 68 68 66 66 67 72 78 86 91 93 93 91 91 91 92 91 88 84 79 74 68 61 55 48 43 39 36 34
67 60 47 40 38 36 37 47 57 58 54 49 44 38 36 35 35 32 31 33 34 28 23 26 29 30 36 40 41 43 48 52 54 53 48 42 39 38 37 34 34 36 39 42 45 46 45 46 49 55 63 69 71 70 69 68 68 68 69 70 70 69 68 68 72 79 87 92 95 95 93 92 92 94 94 93 89 84 79 75 70 62 54 48 43
67 57 45 41 39 36 39 51 60 58 53 48 43 39 37 37 36 33 32 35 34 27 24 27 30 32 38 42 42 43 48 54 58 59 57 52 45 42 41 40 37 37 39 42 46 49 51 50 49 50 54 62 69 74 74 72 70 69 68 69 71 72 72 71 69 69 72 79 86 93 95 94 91 89 90 94 97 96 92 88 83 77 70 63 57
66 54 45 42 40 38 42 55 62 59 53 48 44 40 39 39 37 34 34 37 35 27 25 29 31 35 40 43 44 45 49 55 61 64 65 61 53 47 46 47 44 41 41 43 45 48 52 54 55 53 51 53 58 65 71 74 74 73 72 71 70 70 71 72 72 71 70 70 72 78 85 91 93 92 90 88 89 92 93 93 91 86 80 75 70
63 52 45 44 41 40 46 59 64 59 53 49 45 42 41 41 38 35 37 40 35 28 27 30 33 36 41 44 45 46 50 55 61 65 66 66 61 54 50 51 51 48 44 43 45 46 47 50 53 56 56 54 53 55 59 64 68 72 74 75 75 73 70 70 70 71 70 70 70 71 73 77 84 90 94 93 91 89 88 89 91 91 89 86 83
60 51 47 46 42 42 51 62 65 60 53 49 47 45 44 42 39 36 39 42 36 29 28 32 34 37 42 44 45 46 49 54 59 62 64 66 67 63 56 53 53 54 51 47 46 46 46 47 49 51 55 57 56 55 54 54 56 60 64 69 73 75 75 73 72 71 71 71 72 73 73 73 74 78 85 92 95 96 93 89 87 88 91 94 93
58 52 50 47 43 45 55 65 66 60 54 50 49 48 46 43 39 38 42 43 36 29 30 33 35 38 43 44 44 46 49 52 57 61 63 65 68 69 66 59 56 56 57 56 53 49 48 49 49 49 51 53 55 57 57 55 54 53 53 56 60 65 70 73 74 74 73 73 72 73 74 75 75 73 74 79 86 92 97 98 95 91 89 90 92
58 55 52 48 45 49 60 68 67 60 54 51 51 50 47 43 39 40 44 44 36 29 31 35 36 39 43 44 44 46 50 53 57 61 64 66 68 70 72 70 65 60 60 62 62 60 56 54 52 52 51 50 51 53 55 57 57 55 53 53 52 54 58 63 67 70 72 73 74 74 74 75 76 75 73 73 75 79 85 92 97 98 95 91 89
61 57 53 49 48 54 64 70 68 60 53 52 53 52 48 42 40 42 47 45 36 30 33 36 37 40 44 45 45 47 50 54 58 61 64 68 71 72 74 77 76 72 67 65 66 68 68 64 60 57 55 54 53 52 51 52 54 56 56 56 55 54 53 53 56 61 66 68 71 73 74 75 75 75 74 74 73 74 76 81 86 92 95 96 95
64 60 55 51 52 60 69 72 68 59 53 54 56 54 47 42 40 45 49 46 36 32 34 37 38 41 45 46 46 49 52 56 60 62 64 68 72 75 77 78 80 80 77 71 67 67 68 70 70 68 65 63 61 60 57 54 52 52 53 55 58 60 60 56 54 54 57 61 64 67 70 72 73 73 73 73 73 74 74 75 78 82 87 91 95
66 62 57 55 58 65 72 73 68 59 54 57 59 55 46 41 42 48 52 47 37 33 36 38 39 42 46 47 47 50 53 57 60 63 65 67 70 75 78 79 79 80 81 80 76 71 67 67 71 74 76 75 74 73 71 66 60 55 54 53 55 60 64 66 63 57 54 55 58 60 63 65 68 70 71 71 71 73 74 72 72 74 78 84 88
68 63 60 60 64 70 74 74 68 59 56 60 62 54 45 42 45 51 54 48 37 33 36 39 40 43 47 48 48 51 54 57 60 63 65 67 69 72 75 79 81 83 85 86 86 83 78 73 71 72 75 80 83 84 84 82 78 72 65 59 55 55 59 65 69 68 62 57 55 56 58 60 63 66 68 69 69 70 71 71 70 70 72 76 80
70 65 63 65 70 73 76 75 68 59 58 63 63 53 44 43 47 53 56 49 38 34 38 40 41 44 48 49 49 52 55 58 61 63 65 67 70 71 74 78 82 85 88 89 90 90 89 85 81 77 75 76 79 83 87 90 91 89 83 74 64 57 55 58 66 73 74 70 64 59 58 58 59 61 64 67 68 67 66 67 68 68 68 70 72
71 68 68 72 75 76 77 75 67 59 61 66 63 51 44 44 49 56 58 50 39 36 40 42 43 46 49 50 50 52 55 58 62 64 66 68 70 73 76 79 81 84 87 89 91 91 91 90 89 86 82 80 79 80 82 86 90 93 93 90 83 74 64 57 57 64 73 78 77 70 63 59 58 57 58 61 64 65 64 62 62 62 63 65 68
73 72 74 77 79 79 79 75 66 60 64 68 61 49 44 46 52 59 60 52 41 38 42 44 44 47 50 51 51 53 55 58 62 65 68 70 71 73 76 79 82 84 86 88 91 92 93 93 93 91 89 87 86 84 84 85 86 88 91 93 94 92 85 73 62 57 58 66 75 79 76 70 64 60 58 57 58 60 62 61 59 58 57 59 61
76 77 79 81 83 82 81 75 65 62 68 69 59 47 45 49 55 61 63 54 44 41 43 45 46 49 51 52 52 53 56 59 63 67 70 72 73 75 77 80 82 84 86 88 90 92 93 94 94 94 93 92 91 90 89 90 90 90 92 93 94 95 96 92 83 71 60 56 63 74 82 83 77 69 63 60 58 57 58 58 56 55 54 53 55
80 82 85 86 86 84 82 74 65 65 71 69 56 46 47 51 57 64 66 56 45 42 45 47 48 51 53 54 54 55 57 60 63 67 72 74 76 77 78 80 82 84 86 87 89 91 92 92 93 92 92 93 93 93 93 93 93 95 99 101 99 98 98 99 97 90 78 67 62 64 73 83 85 80 72 66 62 59 58 57 55 54 51 50 51
83 86 89 90 87 86 82 73 66 69 74 67 52 46 49 54 60 68 69 59 47 44 47 49 50 52 55 56 56 57 59 61 64 67 72 75 77 78 79 80 82 84 85 86 87 88 89 90 91 92 92 91 91 92 92 93 93 94 96 99 102 102 100 99 98 96 92 85 76 67 66 73 82 86 82 75 68 64 62 59 57 55 53 50 49
Wind_Speed
93 94 97 101 104 107 110 113 114 115 115 116 120 124 126 128 131 133 134 135 136 138 139 141 143 142 140 135 129 125 124 125 127 130 132 133 132 130 128 126 124 122 119 117 115 112 110 107 105 103 101 99 98 98 97 97 97 97 97 97 96 96 95 95 95 96 97 97 97 96 96 97 98 98 98 99 99 99 99 99 100 101 101 101 103
94 97 101 104 107 110 112 113 114 114 115 119 124 127 128 131 133 133 134 136 137 139 141 142 142 139 134 128 124 124 126 129 131 133 133 132 130 128 125 122 119 116 114 111 109 106 104 101 100 98 97 95 95 94 94 94 93 93 92 92 92 91 90 90 90 90 92 92 92 91 90 90 91 92 93 93 93 93 93 94 94 95 95 95 97
97 101 104 106 109 111 112 113 114 115 118 123 126 128 131 133 134 134 135 137 139 141 142 142 139 134 128 123 122 125 129 133 134 133 132 130 127 123 119 116 113 110 107 105 103 101 99 97 96 95 94 93 92 91 90 89 89 88 88 87 87 86 85 85 85 85 86 87 87 86 85 84 85 85 86 87 87 87 87 88 88 89 89 89 90
100 103 106 108 110 111 112 113 114 117 122 126 128 131 134 134 134 135 137 139 141 142 142 139 134 128 124 122 124 128 132 134 134 132 129 126 121 117 113 110 107 104 101 99 98 97 96 95 94 93 92 90 89 88 86 85 84 84 83 83 82 82 81 80 80 80 81 82 82 81 80 80 79 80 80 81 81 81 82 83 83 83 83 83 84
102 105 107 109 110 112 113 114 116 121 125 127 130 134 135 134 135 137 139 141 142 141 139 135 129 124 122 124 127 131 133 133 131 128 124 119 115 111 108 104 101 98 96 95 95 94 93 93 91 90 89 87 86 84 83 81 80 79 78 78 78 77 77 76 75 75 75 76 77 76 75 75 75 75 75 76 77 77 77 77 78 79 79 79 78
104 106 108 109 111 113 114 116 120 124 126 129 133 135 135 135 137 139 141 142 141 139 135 129 124 122 123 127 130 132 131 129 126 122 117 113 110 106 103 99 97 95 94 93 92 91 91 89 88 87 85 83 82 80 79 77 76 75 74 73 73 72 72 71 71 70 70 70 71 71 71 70 70 71 70 70 71 72 72 72 73 73 74 74 74
105 107 108 109 112 113 115 119 122 125 128 132 136 135 135 136 138 140 141 141 139 136 131 125 121 122 126 130 131 130 128 124 120 115 111 108 105 102 99 96 94 93 92 91 90 88 87 86 84 82 81 79 78 77 75 74 73 71 71 70 69 68 67 66 66 65 65 65 65 65 65 65 65 66 66 66 66 66 67 68 68 68 68 69 69
105 107 108 110 113 115 117 121 124 127 131 135 136 135 136 138 139 141 141 139 136 131 125 122 121 125 129 131 130 127 123 118 113 110 107 104 101 98 96 94 92 91 90 89 87 85 83 81 79 77 76 75 74 73 72 71 70 69 68 67 65 64 63 62 61 61 60 60 59 58 59 59 60 60 61 61 61 61 62 63 63 63 63 63 63
105 107 109 112 114 116 120 123 125 130 134 136 135 136 138 139 140 141 139 136 132 126 122 121 124 128 130 129 127 123 118 112 109 107 104 100 97 95 93 92 91 90 89 87 85 83 80 78 75 73 72 70 69 68 67 67 67 66 65 64 62 61 59 58 57 57 56 55 54 54 54 54 55 55 56 56 57 57 57 58 59 59 58 57 57
105 108 111 113 115 118 122 124 128 133 136 136 136 138 139 140 140 139 137 133 127 122 120 123 127 130 130 127 124 118 113 108 106 104 100 97 95 93 92 91 90 89 88 85 83 80 78 75 73 71 69 67 66 65 64 63 62 61 61 60 59 58 56 54 53 52 51 51 50 49 49 50 50 51 51 51 52 52 52 53 53 54 54 53 52
107 110 112 114 117 121 124 127 131 135 136 136 137 139 139 140 139 137 133 128 123 120 122 126 129 130 128 124 119 113 109 106 104 101 98 96 94 93 92 91 89 88 86 84 81 78 75 73 71 69 67 65 64 63 62 60 59 57 56 55 54 54 52 50 48 47 46 46 45 44 44 45 46 46 46 46 47 48 48 48 49 49 49 48 47
109 112 113 116 120 123 125 129 134 136 136 137 138 139 139 139 137 133 129 124 121 121 125 129 130 128 125 120 114 109 107 105 102 98 96 94 92 91 91 89 88 86 84 82 80 77 74 71 68 66 65 63 62 61 60 58 56 54 52 51 50 49 49 48 46 44 43 42 41 40 39 40 41 41 41 42 42 43 43 43 44 44 44 44 43
111 112 115 118 122 124 127 132 135 136 137 138 139 139 139 137 134 130 126 122 120 123 127 130 129 126 122 116 111 108 106 103 99 95 93 91 89 88 87 86 85 83 81 80 78 75 72 70 68 66 64 62 60 59 57 55 53 50 48 46 46 45 45 44 44 43 41 40 39 38 37 37 37 37 37 37 37 38 38 38 38 38 38 39 39
112 113 117 121 123 126 130 134 136 136 137 139 139 138 137 134 130 126 123 121 122 126 129 129 127 123 118 113 109 107 105 100 96 93 90 88 86 85 84 83 81 80 78 76 74 72 71 69 67 65 63 61 59 57 55 53 51 49 46 44 43 42 41 41 40 40 39 38 38 37 36 36 35 35 34 34 33 33 33 33 34 34 34 34 34
112 116 120 123 125 128 132 135 136 137 138 139 138 137 134 130 127 124 121 121 124 128 130 128 124 120 115 111 108 106 102 98 94 91 88 86 85 83 82 81 80 79 77 75 73 71 69 67 65 64 62 61 59 58 55 53 51 49 47 45 43 41 40 38 38 37 36 35 35 35 34 34 33 33 32 32 31 30 30 29 29 30 30 30 30
114 118 122 124 126 130 134 136 136 137 139 139 137 134 131 127 124 122 121 123 127 130 129 126 122 118 113 110 108 105 100 95 91 88 86 84 83 82 81 81 80 79 78 76 73 71 68 66 64 63 62 61 59 58 55 53 51 49 47 46 45 43 42 40 38 37 36 35 34 33 33 32 32 31 30 29 29 28 27 27 26 26 26 27 27
117 120 123 125 127 131 135 136 137 138 139 137 134 131 127 125 123 121 122 125 129 130 128 124 120 116 112 109 107 103 97 93 89 86 84 82 81 80 79 79 78 78 77 75 72 70 68 66 65 64 62 60 58 56 54 52 50 49 47 46 45 44 42 41 39 38 36 34 33 33 32 31 31 30 29 28 27 26 26 25 25 24 24 23 23
119 121 123 126 129 133 136 136 137 138 138 135 132 128 125 123 122 122 124 128 130 129 126 123 119 114 110 108 105 100 95 91 87 84 81 79 78 77 75 75 75 75 74 73 71 69 68 67 66 64 62 60 57 55 52 50 48 47 45 43 42 40 40 39 38 37 36 35 33 32 32 31 30 29 28 27 25 25 24 23 23 23 22 21 21
120 122 124 127 130 134 136 136 137 137 135 132 129 125 122 121 121 122 126 129 130 128 125 122 118 113 110 107 103 98 93 88 85 81 78 76 75 74 73 73 73 73 73 72 70 69 69 69 68 66 63 61 58 55 52 49 47 45 43 41 40 39 39 38 37 36 35 34 33 32 31 30 29 28 27 26 25 24 23 22 21 21 21 20 19
121 123 125 128 132 135 136 136 136 136 133 130 126 123 120 119 120 123 127 129 129 126 123 121 116 112 109 106 101 95 90 86 82 79 76 74 73 72 71 71 72 72 71 71 70 70 71 71 70 68 65 63 60 57 53 50 48 46 45 44 43 42 40 38 37 36 35 34 33 32 31 30 28 27 26 25 24 23 22 21 21 20 20 19 18
121 123 126 129 133 135 135 135 135 133 130 127 124 121 119 119 121 124 127 129 127 125 122 120 115 111 108 104 99 93 88 84 80 77 74 72 71 70 69 69 69 69 70 70 70 71 72 71 70 68 66 63 60 57 54 52 49 47 46 45 44 43 41 40 39 38 37 36 35 34 33 31 30 28 26 25 23 22 22 21 20 20 19 18 17
122 124 127 130 134 135 135 135 134 131 127 125 122 119 118 119 121 124 127 127 126 123 122 119 114 109 106 102 96 91 86 82 78 75 71 69 69 68 67 66 66 67 69 69 70 71 72 71 70 68 66 63 60 57 55 52 50 48 46 45 44 43 42 41 40 39 38 37 36 35 34 32 31 29 28 26 25 23 22 21 20 19 18 18 17
122 125 128 132 134 135 134 134 132 128 125 123 120 117 117 119 122 125 127 126 124 123 121 117 112 107 104 100 94 89 85 81 77 74 70 68 67 66 65 65 65 66 68 69 70 70 70 70 69 67 66 63 61 58 55 53 51 49 47 46 44 43 42 42 41 40 39 38 37 36 35 34 33 31 30 28 27 25 23 22 21 20 19 18 17
123 125 129 132 135 134 133 133 129 126 124 122 118 116 117 119 123 125 126 125 124 122 120 115 110 106 103 98 92 88 84 80 77 73 70 67 65 65 65 65 65 66 67 69 69 69 69 68 67 66 65 64 62 60 57 55 53 51 50 48 47 46 45 45 44 43 42 41 40 39 38 37 35 34 33 31 29 27 25 24 22 21 19 18 17
123 126 130 133 134 134 133 131 127 124 123 120 116 115 117 120 123 125 125 125 123 122 119 113 108 104 101 95 90 86 82 79 75 72 68 66 64 64 64 64 64 64 65 66 67 67 66 66 66 66 66 65 63 62 60 58 56 55 54 52 51 50 49 49 48 47 46 45 43 41 40 38 36 35 33 31 30 28 27 26 24 22 21 20 19
124 127 130 134 134 133 132 130 125 123 122 118 114 114 117 121 123 125 125 124 123 121 118 111 105 102 98 93 88 84 80 77 73 70 67 64 62 62 62 62 61 61 61 61 62 62 63 63 64 65 65 64 63 62 61 59 58 57 57 56 56 55 54 53 52 50 49 47 45 43 41 39 37 36 35 33 32 31 29 27 26 25 24 22 21
124 128 131 134 134 133 131 128 124 123 122 117 113 115 118 121 123 124 124 124 122 120 116 109 104 101 97 91 86 82 78 75 72 69 66 64 62 61 60 60 60 59 59 59 59 59 60 60 60 61 60 60 61 61 60 60 59 59 58 58 57 56 55 54 53 51 50 48 46 45 43 41 40 39 38 37 35 34 32 30 29 28 26 25 23
125 128 132 134 133 132 130 126 123 123 120 115 112 115 118 121 123 124 124 123 122 120 114 107 103 100 96 90 86 82 78 75 72 70 67 65 62 61 60 60 60 60 60 60 59 59 58 58 58 58 58 59 60 60 60 60 59 59 58 58 57 57 56 55 54 53 52 51 49 48 47 45 44 42 41 39 37 36 34 32 31 30 28 27 26
125 129 132 133 132 131 129 125 123 123 119 113 112 115 118 121 122 123 124 123 121 119 113 106 102 100 95 90 86 82 79 76 73 70 67 64 62 60 59 59 58 58 58 58 58 58 58 58 58 58 58 59 59 60 60 60 60 59 59 58 58 58 57 57 56 55 54 54 53 52 50 49 47 46 43 41 40 38 36 35 34 32 31 30 28
126 129 132 133 131 130 128 124 123 122 117 111 112 116 119 121 122 123 124 123 121 118 112 105 102 99 94 89 85 82 78 75 72 69 66 63 61 58 57 56 55 55 55 55 55 55 56 56 57 57 58 58 58 58 59 59 60 60 59 58 58 58 57 56 56 55 55 55 54 53 52 51 50 48 46 44 42 40 38 37 36 35 33 32 30
126 129 131 131 130 130 127 123 123 121 115 110 112 116 118 120 121 123 123 122 120 116 109 103 101 98 93 88 84 81 78 75 71 68 65 62 60 57 55 54 53 53 52 52 52 53 54 54 54 55 55 56 56 56 56 57 57 58 58 58 58 58 57 57 56 55 55 55 54 54 53 53 51 50 48 46 44 42 41 39 38 37 36 34 32
126 129 130 130 129 129 125 123 123 120 112 109 112 116 118 119 121 123 123 121 119 114 107 101 99 96 92 87 83 80 78 75 72 69 65 62 60 57 54 52 51 50 49 49 50 50 50 51 52 52 52 53 53 54 54 54 54 55 56 56 56 56 56 56 55 55 54 54 53 53 53 52 52 51 50 49 47 45 43 42 41 39 38 36 34
126 128 129 128 128 127 124 123 123 118 110 109 112 116 118 119 121 123 122 120 117 113 105 100 98 95 91 86 83 80 77 75 72 69 66 62 60 58 55 53 50 48 47 46 47 47 48 48 49 49 49 50 51 51 51 52 52 52 52 53 53 53 54 54 54 54 54 53 53 53 52 52 51 51 50 50 49 47 46 45 43 41 40 39 37
125 127 128 127 128 126 123 122 122 116 109 108 113 116 117 119 121 122 121 118 116 110 103 99 97 94 89 85 82 78 76 74 71 69 66 63 61 59 57 54 52 49 47 46 45 45 45 46 47 47 47 48 48 49 50 50 50 50 50 50 51 51 51 52 52 53 53 53 53 53 52 51 51 50 50 49 48 48 47 46 45 44 42 41 39
124 126 126 127 127 125 123 122 121 114 107 108 113 115 116 118 121 121 119 116 114 108 101 98 97 93 89 85 81 77 75 73 71 69 67 64 62 60 58 56 54 53 51 49 47 46 45 44 44 44 45 45 45 46 47 48 48 49 49 50 50 50 50 50 50 50 50 51 51 51 51 51 50 49 49 48 48 47 46 46 45 44 43 42 41
123 125 126 126 126 124 122 122 120 112 106 109 113 115 116 118 121 120 118 116 113 107 100 97 96 93 88 84 81 77 75 73 71 69 67 64 62 60 59 58 56 55 53 51 50 48 47 45 44 43 42 42 42 43 43 44 45 46 47 48 49 49 49 49 49 48 48 48 49 49 49 49 49 48 48 47 46 45 44 44 43 42 42 42 41
122 124 125 125 125 123 122 122 118 109 105 109 113 114 116 119 120 120 117 115 111 105 99 96 95 91 87 84 80 77 74 72 70 67 65 62 60 59 57 56 56 54 53 51 49 48 47 46 45 43 42 41 40 40 40 41 42 43 44 45 46 47 47 47 47 47 47 47 46 46 47 47 47 48 48 47 46 45 44 43 42 41 41 41 41
121 123 124 125 124 122 121 121 116 107 105 109 112 114 116 119 120 118 115 113 109 103 97 95 94 90 86 82 78 75 72 70 67 65 62 61 59 57 55 54 53 53 52 51 49 48 46 45 44 43 42 41 40 39 38 38 39 40 41 42 43 44 45 45 46 46 46 46 46 45 45 44 45 45 46 46 46 46 45 44 42 42 41 41 40
121 123 123 124 123 121 121 120 113 105 104 109 112 113 115 118 118 116 113 111 107 100 95 94 93 89 84 81 77 74 71 68 66 64 62 60 58 56 54 53 51 50 50 50 49 48 47 46 45 44 42 41 40 39 39 38 37 37 38 38 39 40 41 42 43 44 44 45 45 44 44 43 43 43 43 43 44 44 44 44 43 43 42 40 39
120 122 123 123 122 120 121 118 110 103 104 109 111 112 115 117 116 114 111 109 105 98 94 93 92 88 84 80 76 73 71 68 66 64 62 60 58 56 54 53 51 49 49 48 48 48 47 46 46 45 44 42 41 40 39 39 38 38 37 36 36 37 37 38 39 40 41 42 42 43 42 42 41 41 40 40 40 41 41 42 42 42 42 40 39
120 121 122 122 121 120 120 116 107 101 104 108 109 111 115 116 114 111 109 108 103 97 93 92 91 87 84 80 76 73 71 68 66 65 62 60 58 56 55 53 51 50 48 47 47 47 47 46 46 45 44 44 43 41 40 39 39 39 38 37 37 36 35 35 36 36 37 38 39 39 40 40 40 39 39 38 38 38 38 38 39 39 39 39 39
119 120 121 121 119 119 119 113 104 100 104 107 108 111 114 115 112 109 108 106 102 95 92 92 91 87 83 80 76 74 71 68 66 64 62 60 58 57 55 53 52 50 49 47 46 45 45 45 45 45 45 45 45 44 43 41 40 39 39 39 38 37 36 35 34 33 34 35 35 36 36 37 37 37 37 37 37 36 36 36 36 36 37 37 37
119 119 120 119 118 119 117 110 101 99 104 106 108 111 114 113 110 108 106 105 100 94 91 91 90 87 83 80 76 73 71 68 66 64 61 60 58 56 55 54 52 50 49 47 45 44 43 43 43 44 45 45 45 46 46 45 43 42 40 39 39 39 38 37 35 33 32 31 32 32 33 33 34 35 35 35 35 35 34 34 33 33 34 34 35
118 118 119 118 117 118 115 106 98 99 104 105 107 110 113 111 108 106 105 103 98 92 89 90 89 86 82 79 76 73 70 67 65 63 61 59 57 56 54 53 52 51 50 49 47 46 44 43 42 42 43 44 44 45 46 46 46 45 44 42 41 40 39 39 38 35 33 31 29 29 30 30 31 31 32 32 33 33 33 33 32 31 31 31 32
117 117 118 117 117 117 112 101 96 99 103 104 107 110 111 109 106 104 104 101 96 90 88 89 88 85 81 78 75 72 70 67 65 63 61 59 57 55 54 53 52 52 51 50 49 48 46 45 43 42 41 41 42 43 44 45 46 46 46 45 43 41 40 39 39 38 36 33 31 29 28 28 28 29 29 30 30 30 31 31 31 31 29 28 28
115 116 116 116 116 115 107 97 95 100 102 103 106 110 110 107 104 103 102 100 95 89 87 88 87 84 81 77 74 72 69 67 65 63 60 59 57 56 54 53 51 50 50 49 49 48 47 46 45 43 42 40 40 40 40 41 42 43 44 45 44 43 41 40 39 39 38 37 35 32 29 27 26 26 26 27 27 27 27 28 28 29 29 28 27
114 115 114 114 115 111 101 94 95 99 101 103 106 109 108 105 103 102 101 99 93 88 87 87 86 83 80 76 74 71 69 67 65 63 61 59 58 56 55 53 52 50 49 48 48 47 47 47 46 45 44 43 41 40 39 39 39 40 41 43 44 44 44 42 40 39 37 37 36 35 33 30 27 26 24 24 24 25 25 25 25 25 26 26 26
113 113 113 114 113 106 96 92 95 99 100 102 106 107 106 103 101 101 101 98 92 87 86 86 85 83 79 76 73 71 69 67 65 63 61 59 58 56 55 53 52 51 50 49 48 47 47 47 46 46 45 44 43 42 41 40 39 38 38 39 41 42 44 44 43 41 38 37 36 36 35 34 31 28 26 24 23 23 23 23 23 22 22 23 23
111 111 112 112 109 100 91 91 95 98 99 102 105 106 104 101 100 100 100 96 91 86 85 85 85 82 79 75 73 70 69 67 65 63 61 59 58 56 54 53 52 51 50 49 48 48 47 46 46 46 45 45 44 43 42 41 40 39 39 38 38 39 40 42 43 43 41 39 38 37 36 35 34 32 29 26 24 23 22 23 22 22 21 20 20
110 110 111 110 103 93 89 91 95 97 98 101 104 104 102 100 99 99 99 95 90 85 84 84 84 81 78 75 73 70 68 67 65 62 61 59 57 55 54 52 51 50 49 48 48 47 47 46 46 46 45 45 44 44 43 42 41 40 40 39 38 38 38 38 40 42 42 41 40 38 37 36 34 33 31 29 27 24 23 22 22 22 21 20 19
108 109 110 106 96 88 87 91 94 96 98 101 102 102 100 98 98 98 98 95 89 84 83 84 83 81 78 75 72 70 68 66 64 62 60 58 57 55 54 52 51 50 49 48 47 47 46 46 46 46 46 46 45 45 44 43 42 41 40 39 38 37 36 36 36 37 39 41 41 39 39 38 36 34 32 30 29 26 24 23 22 22 22 21 20
Wind_Direction
312 313 313 314 314 315 315 316 316 317 317 317 317 318 318 318 318 318 318 318 318 318 318 318 318 318 318 318 318 318 317 316 315 315 315 314 314 313 313 312 311 309 308 308 307 306 304 303 302 301 300 300 299 298 297 296 295 293 292 291 290 289 288 287 286 285 284 282 281 280 280 279 278 277 276 275 274 273 272 271 270 269 268 266 265
313 313 314 315 315 315 316 317 318 318 318 319 319 320 320 320 320 319 319 319 319 319 319 319 319 320 320 320 319 319 318 317 317 316 316 316 315 314 314 312 311 311 310 309 308 307 307 306 305 305 304 303 302 300 299 298 297 296 295 293 292 291 290 289 287 286 285 284 283 282 281 279 279 278 277 276 275 274 273 272 270 269 268 267 265
314 314 315 315 316 316 317 318 319 319 320 321 321 321 322 322 321 321 320 320 320 320 320 320 321 321 321 321 320 319 319 318 318 318 317 317 316 315 314 313 313 312 311 311 310 310 310 309 308 307 306 305 304 302 301 300 299 298 296 295 294 293 292 290 289 288 286 285 284 283 282 281 279 278 278 277 276 275 274 272 271 269 268 267 265
314 315 316 316 317 318 319 319 320 321 322 322 323 323 323 322 322 322 321 321 321 321 322 322 322 322 322 321 321 321 320 320 319 319 318 317 316 316 315 315 314 314 314 314 313 313 312 312 310 309 308 307 306 305 303 302 301 300 298 297 296 295 293 292 290 289 287 286 285 284 283 282 280 279 278 276 275 274 273 272 271 270 268 267 266
315 316 317 317 318 319 320 321 322 323 323 324 324 324 324 323 323 323 322 322 322 323 323 323 323 323 323 323 322 322 321 321 320 319 318 318 318 317 317 317 317 317 317 317 316 315 314 313 312 311 310 309 308 307 306 304 303 301 300 299 297 296 294 293 291 289 288 287 286 285 284 282 281 279 278 277 276 275 273 272 271 270 269 268 267
317 317 318 319 320 321 322 322 323 324 324 325 325 325 324 324 324 323 323 323 323 324 324 324 324 324 324 324 323 323 322 321 320 320 319 319 319 319 319 319 320 320 320 319 318 317 317 316 314 313 312 311 310 309 308 306 305 303 302 300 299 297 295 294 292 291 289 288 287 286 285 284 282 280 279 277 276 275 274 272 271 270 269 268 267
318 318 319 320 321 322 323 324 325 325 326 326 326 325 325 325 324 324 324 324 324 325 325 325 325 325 325 325 324 323 323 322 321 321 321 322 322 322 322 323 323 323 322 322 321 320 319 318 316 315 314 313 312 311 310 309 307 306 304 302 300 299 297 296 294 293 291 290 288 288 286 285 284 283 281 279 277 276 275 273 271 270 269 268 267
319 319 320 321 322 324 325 325 326 327 327 327 326 326 325 325 325 325 325 325 325 326 326 326 326 326 326 325 325 324 324 324 324 324 324 324 324 325 325 325 325 325 325 324 323 322 321 320 319 318 316 315 314 313 312 311 310 308 307 305 303 302 301 299 297 296 294 292 291 290 288 287 286 284 283 281 280 278 276 275 273 271 269 267 267
320 321 322 323 324 325 326 327 328 328 328 327 327 326 326 326 326 326 326 326 326 327 327 328 327 327 327 327 326 326 325 326 326 326 326 326 327 327 328 328 328 328 327 327 326 325 324 323 322 321 319 318 317 316 315 314 312 311 309 308 306 305 304 303 301 300 298 296 295 293 292 290 289 287 286 284 283 281 278 277 275 274 272 269 267
321 322 323 324 326 326 327 328 329 328 328 328 327 327 327 327 327 326 326 327 328 328 329 329 328 328 328 328 327 327 327 328 328 328 328 328 329 330 330 331 331 330 330 329 329 328 327 326 325 324 323 322 321 319 318 316 314 313 312 311 310 309 307 306 304 303 302 300 299 298 296 294 292 291 289 287 286 284 282 280 278 276 275 272 269
322 323 325 326 327 328 329 329 329 329 329 328 328 328 328 328 327 327 327 328 329 330 330 330 329 330 329 329 329 329 330 330 331 331 331 331 332 333 333 333 333 332 332 332 331 331 330 329 328 328 327 326 325 323 321 319 318 316 315 314 313 313 312 310 309 307 306 305 304 303 301 299 297 296 294 292 290 287 285 283 281 279 277 275 272
323 325 326 327 328 329 330 329 329 329 329 329 329 329 328 328 328 328 329 330 331 331 331 331 331 331 330 330 331 332 332 333 333 333 333 334 334 334 335 335 335 335 335 335 334 334 333 332 332 331 331 330 329 327 325 323 322 321 320 319 319 318 317 316 315 313 311 310 308 307 305 303 302 300 298 296 294 292 290 287 285 283 281 278 275
325 326 327 328 329 330 330 329 330 330 330 330 330 329 329 328 328 329 330 331 332 332 332 332 332 332 332 332 333 334 334 334 334 335 335 335 335 336 336 336 337 338 338 338 337 337 336 336 336 335 335 333 332 330 328 327 326 325 325 325 324 324 323 322 321 320 318 317 315 313 311 309 306 305 303 301 299 297 295 292 289 286 284 281 278
325 327 328 329 330 330 330 330 331 331 330 330 330 330 329 329 329 330 331 332 332 332 333 333 333 333 333 335 336 336 336 336 336 336 336 336 336 337 337 338 339 340 341 341 340 340 341 340 340 339 338 337 336 334 333 332 331 330 330 330 330 330 329 328 327 325 324 322 321 319 317 315 312 310 309 306 304 302 299 297 294 291 288 284 281
327 328 329 330 330 330 330 331 331 331 331 331 331 330 330 330 331 332 333 333 333 333 334 334 334 335 336 337 337 337 337 337 337 337 337 337 338 338 338 340 341 343 343 344 344 345 344 344 343 342 342 341 340 339 338 337 336 336 335 335 335 335 335 334 332 331 329 327 326 324 322 320 318 316 314 312 309 306 303 300 297 295 292 289 285
328 329 330 330 330 330 331 332 332 332 332 332 331 331 331 331 332 333 333 334 334 334 335 335 336 337 338 338 338 338 338 338 338 338 339 339 339 339 341 343 344 345 346 347 348 348 347 347 348 347 346 345 344 343 342 341 341 340 340 340 340 340 341 340 339 338 336 334 332 330 328 326 324 321 319 316 313 310 308 305 302 299 296 293 290
329 329 329 329 330 331 332 333 333 333 332 332 332 332 332 332 333 333 334 334 335 335 336 337 337 338 339 339 339 339 339 339 340 340 340 340 340 342 343 345 346 347 348 349 350 350 351 352 352 351 350 349 348 347 346 345 346 345 345 345 345 345 345 344 343 342 341 340 338 337 335 333 330 327 324 321 318 315 313 311 308 305 302 298 294
329 329 329 329 330 332 333 333 333 333 333 333 332 333 333 333 333 334 335 335 336 336 337 338 339 340 340 340 340 340 340 341 341 341 340 340 341 343 345 346 347 348 349 351 352 353 355 356 356 355 354 353 352 350 350 350 350 350 350 350 349 348 348 348 347 347 346 345 344 343 341 339 337 335 331 328 325 322 319 317 315 312 309 305 301
329 329 329 330 331 333 333 334 334 334 333 333 333 334 334 333 334 335 335 336 337 337 338 339 340 341 341 341 341 341 341 341 341 341 341 341 342 344 345 347 348 349 351 352 354 356 358 359 359 358 357 356 355 354 354 353 354 354 354 354 354 354 354 354 352 351 350 350 349 347 346 345 344 342 340 337 334 330 328 325 323 321 318 314 311
328 328 329 330 332 333 334 334 334 334 334 334 334 334 334 334 334 335 336 337 337 338 340 341 341 342 341 341 341 342 342 342 342 341 341 342 343 345 346 348 349 350 352 354 356 359 1 2 1 0 359 359 359 358 358 358 358 358 358 360 1 0 359 358 358 358 357 357 355 354 353 352 351 349 347 345 342 339 336 335 333 332 329 326 322
328 328 329 331 333 334 334 335 335 335 335 335 335 335 334 334 335 336 337 337 338 340 341 342 342 342 341 341 342 342 342 342 342 342 341 342 344 346 347 349 350 351 353 355 358 2 3 3 3 2 2 2 2 1 1 2 3 4 5 6 6 5 4 4 4 3 3 3 2 1 360 358 356 355 354 352 351 348 347 346 344 342 339 336 332
328 328 330 331 333 334 335 335 335 335 335 336 335 334 334 334 335 336 337 338 339 341 342 343 342 342 342 342 342 343 343 343 342 342 342 343 345 346 347 349 350 352 355 358 1 3 5 4 4 4 5 5 5 5 5 6 7 9 10 11 11 11 10 10 10 9 8 8 8 7 6 4 3 1 360 359 358 357 356 355 353 352 350 347 344
328 329 330 332 333 334 335 336 336 336 336 336 335 334 334 335 336 337 338 339 341 342 343 343 343 342 342 342 343 343 343 343 343 342 342 343 345 346 348 349 352 354 357 360 2 4 5 5 5 6 6 7 7 8 9 10 11 12 13 14 15 15 16 16 15 14 14 13 13 13 12 11 10 9 7 6 4 4 3 2 2 1 360 358 356
328 329 331 332 334 335 336 336 336 337 337 337 335 334 334 335 336 338 339 340 342 343 343 343 343 343 343 343 343 344 344 343 343 343 343 343 344 346 349 351 354 356 359 1 3 4 5 5 6 7 8 9 9 10 11 13 13 14 15 16 17 18 19 20 19 19 18 18 17 17 16 16 15 14 13 11 10 10 9 10 10 9 8 7 6
328 329 331 333 334 335 336 337 337 337 338 337 335 334 334 336 337 338 340 341 343 343 344 343 343 343 343 344 344 344 344 344 343 343 343 343 344 347 350 353 355 357 359 2 3 4 4 4 6 8 10 10 11 12 14 15 16 17 18 18 19 20 21 22 22 22 21 21 20 20 19 19 19 18 17 17 16 16 16 15 16 16 16 16 14
328 330 332 333 334 336 337 337 338 338 338 336 334 334 335 336 338 339 341 342 343 344 344 344 343 343 344 344 344 345 344 344 343 343 343 343 344 347 350 353 355 357 359 1 2 3 4 4 7 10 11 12 13 14 15 16 18 19 20 21 22 22 23 23 23 23 23 23 22 22 22 21 21 21 21 21 21 20 20 20 20 21 22 22 21
329 330 332 333 335 336 337 338 338 339 338 336 334 334 335 337 338 340 342 343 343 344 344 344 344 344 344 345 345 345 345 345 344 344 344 344 345 347 349 352 353 356 358 0 1 3 4 5 8 10 11 13 14 16 17 18 19 21 22 23 24 25 25 25 25 25 25 25 24 24 23 23 23 24 24 24 24 23 22 22 23 24 25 25 25
329 331 332 334 335 336 338 339 339 339 337 335 334 334 336 337 339 341 342 343 344 344 344 344 344 344 345 345 346 346 346 346 346 346 346 346 346 347 349 351 352 355 357 359 0 1 3 5 7 9 10 12 15 17 18 19 20 21 23 24 25 25 26 26 27 26 27 27 26 26 25 25 25 25 25 26 26 26 25 25 26 27 27 27 28
329 331 332 334 335 337 338 339 339 339 337 335 334 335 336 338 340 341 343 343 344 344 344 344 344 345 346 346 346 347 347 347 347 347 347 347 347 347 349 350 351 354 356 358 358 359 1 4 7 8 10 12 14 16 18 19 20 21 22 23 25 25 26 26 26 27 27 28 28 28 27 27 27 26 27 27 28 28 28 28 28 29 29 29 29
330 331 333 334 335 337 339 339 339 339 337 335 334 335 336 338 340 342 343 344 344 344 344 344 345 346 346 347 347 348 348 348 348 347 347 347 347 347 348 349 350 352 354 355 357 359 1 4 6 8 9 11 13 15 17 19 20 21 21 22 24 25 26 26 26 27 28 28 29 29 29 29 29 28 28 28 29 29 30 31 31 31 31 31 31
330 332 333 334 336 338 339 339 339 338 336 334 335 336 337 339 341 343 343 344 344 344 344 345 345 346 347 347 347 348 348 348 348 347 347 347 347 347 348 348 350 352 353 353 355 358 0 3 5 7 9 10 12 14 16 17 19 20 21 22 23 24 25 25 26 26 27 28 29 29 30 30 30 30 30 30 30 30 31 33 33 33 33 33 33
331 332 333 335 336 338 339 339 339 338 335 334 335 336 337 339 341 343 343 344 344 345 345 345 346 346 347 347 347 348 348 348 348 348 347 347 348 348 348 349 349 351 351 352 354 356 359 2 4 6 8 9 11 13 14 15 17 18 20 21 22 23 24 25 25 26 27 27 28 29 29 30 30 30 30 31 31 31 32 33 35 35 35 35 35
331 332 333 335 337 338 339 339 339 337 335 334 335 336 338 340 342 343 343 344 344 345 345 345 346 347 347 347 348 348 348 348 348 348 347 347 348 349 349 349 350 350 350 352 354 355 357 360 2 4 6 8 10 12 13 14 15 16 18 19 20 22 23 24 25 26 26 27 27 28 28 29 29 30 30 31 31 32 32 33 34 35 36 36 36
331 332 334 335 337 338 339 339 339 337 335 334 335 337 338 341 342 343 343 344 344 345 345 345 346 347 347 348 348 348 348 347 347 347 348 348 348 349 350 350 350 350 351 353 354 355 357 358 360 1 4 6 8 10 12 13 14 15 16 17 18 19 21 22 23 25 25 26 27 27 28 28 28 28 29 30 30 31 32 33 34 35 36 37 37
332 333 334 335 337 338 339 339 338 336 334 334 336 337 339 341 343 343 343 344 344 345 345 346 347 347 347 348 348 348 348 347 347 347 348 348 348 348 349 350 351 351 352 353 354 355 357 358 359 360 0 2 4 7 9 10 12 13 14 15 16 17 18 19 21 22 23 24 25 26 27 28 28 28 29 29 29 30 31 33 33 34 35 37 38
332 333 334 335 337 338 339 339 338 336 334 335 336 338 339 341 343 343 343 344 345 345 346 346 347 348 348 348 348 348 348 348 348 348 348 348 348 347 348 350 351 352 353 354 354 355 356 357 358 358 359 359 0 2 4 6 8 9 11 12 13 14 15 16 17 19 21 22 23 24 25 26 27 28 29 30 30 30 30 31 33 34 35 36 37
332 333 334 336 337 338 338 338 337 335 334 335 337 338 340 342 343 343 343 344 345 345 346 346 347 348 348 348 348 348 348 348 347 347 347 347 347 347 348 349 351 352 353 354 355 355 355 356 356 357 357 357 358 358 359 1 3 5 6 8 10 11 12 13 14 15 17 19 20 22 22 23 23 25 27 28 29 30 30 31 32 32 34 35 36
332 333 334 336 337 338 338 337 336 335 334 336 337 338 340 342 343 343 343 344 345 345 346 347 347 348 348 348 348 348 348 347 347 347 346 346 347 348 348 349 350 351 352 353 354 355 356 356 356 356 356 357 357 357 357 357 358 360 1 3 5 6 8 9 11 12 13 15 17 18 20 21 21 22 23 24 25 27 28 30 31 32 33 33 34
332 333 334 336 337 337 337 337 336 334 334 336 337 339 340 342 342 342 343 344 345 345 346 346 347 347 347 347 347 348 347 347 347 347 347 347 347 348 348 348 349 350 351 353 354 355 356 356 356 356 356 356 357 357 357 356 356 356 357 358 360 1 3 5 6 8 9 11 12 14 16 17 19 20 21 22 22 23 24 26 28 30 32 33 34
332 333 334 335 336 337 337 336 335 334 335 336 338 339 340 342 342 342 343 344 345 345 346 346 347 347 347 347 347 348 348 347 347 347 347 347 348 348 349 349 349 349 351 352 354 355 356 357 357 357 357 357 357 357 357 357 357 356 356 355 356 357 359 1 2 4 5 7 8 10 11 13 15 17 19 20 21 21 22 22 24 26 29 32 34
332 333 334 335 336 336 336 335 334 334 335 337 338 339 340 342 342 342 343 344 345 345 346 346 347 347 347 347 348 348 348 348 347 347 347 347 348 348 349 349 349 349 350 351 353 354 356 356 357 357 357 357 357 357 358 358 358 358 357 355 354 354 355 357 358 360 2 3 4 5 7 8 10 12 14 17 19 20 21 21 21 22 24 26 30
331 332 333 334 335 335 335 335 334 334 335 337 338 339 340 341 342 342 344 344 345 345 346 346 347 347 347 347 348 348 348 348 348 347 347 347 348 348 349 349 349 349 350 350 351 352 354 355 356 357 357 358 358 358 358 359 359 360 360 358 357 355 354 354 355 356 358 359 1 2 3 4 5 7 9 12 14 17 18 20 20 20 21 22 24
331 332 333 334 334 334 334 334 333 334 335 337 338 339 340 341 342 343 344 345 345 345 346 347 347 347 347 348 348 349 349 348 348 347 347 347 348 348 348 348 348 349 349 350 350 350 351 352 354 355 356 357 358 358 358 358 359 360 1 1 0 359 356 354 354 354 354 355 357 358 359 0 1 3 5 6 9 12 14 17 18 19 19 20 21
331 332 332 333 333 334 334 333 333 334 336 337 338 339 340 341 342 343 344 345 345 345 346 347 347 347 347 348 348 349 349 349 348 348 347 347 347 348 348 348 348 348 349 350 350 350 351 351 352 353 354 355 356 357 357 357 357 358 360 1 2 2 0 357 355 353 353 353 353 354 355 356 358 359 0 2 4 6 8 11 15 18 19 19 19
330 331 332 332 333 333 333 333 333 334 336 337 338 339 340 341 342 343 344 345 345 345 346 347 347 347 347 348 349 349 349 349 348 348 348 347 347 347 348 348 349 349 349 349 349 350 351 351 352 352 353 353 354 355 355 356 356 356 357 358 359 1 2 2 359 356 353 352 352 351 351 352 353 355 356 358 0 1 3 4 7 11 15 19 19
330 330 331 331 332 332 332 332 333 334 336 337 338 339 340 341 342 344 345 345 345 345 346 347 347 348 348 348 349 349 349 349 349 349 348 348 347 347 348 349 349 349 349 349 349 349 349 350 351 352 353 353 353 353 353 353 354 354 354 354 356 357 0 3 3 1 357 354 352 351 350 349 348 350 352 354 355 356 358 360 2 3 7 11 15
329 330 330 331 331 331 332 332 333 334 336 337 338 339 340 341 342 344 345 345 346 346 346 347 348 348 348 348 349 350 350 349 349 349 349 348 348 348 348 348 349 349 349 349 349 349 349 350 350 351 353 354 354 354 353 352 352 352 352 352 353 354 355 358 2 4 3 360 356 353 351 349 348 347 347 348 350 351 353 355 358 360 1 3 6
328 329 329 330 330 331 331 332 333 334 336 337 338 339 340 341 343 344 345 346 346 345 346 347 348 348 348 349 349 350 350 350 349 349 349 349 349 348 348 348 349 349 350 350 350 350 350 351 351 351 352 353 354 354 354 353 353 352 351 351 351 351 352 353 355 359 2 4 3 358 354 351 349 347 345 344 345 346 347 349 352 355 358 359 1
327 328 328 329 330 330 331 332 333 334 336 337 338 339 340 342 343 345 346 346 346 345 346 347 348 348 348 349 349 350 350 350 350 350 349 349 349 349 349 349 349 349 350 350 350 350 351 351 351 352 352 353 353 353 354 354 354 354 353 352 351 350 350 350 351 352 356 1 5 4 1 355 351 348 346 344 342 342 342 344 345 348 352 356 359
327 327 328 328 329 330 331 332 333 334 336 337 337 339 341 342 344 345 346 346 346 345 345 347 348 348 348 349 350 350 351 350 350 350 350 349 349 349 349 349 349 350 350 350 351 351 351 351 351 351 352 352 353 353 354 355 355 355 355 354 353 351 350 349 349 349 350 354 359 3 4 1 355 351 348 346 344 341 340 339 340 342 345 350 355
326 326 327 328 329 330 331 332 333 334 336 336 337 339 341 342 344 345 346 346 346 345 345 346 347 348 348 349 350 350 351 351 350 350 350 350 350 349 349 350 350 350 351 351 351 352 352 352 352 352 352 352 353 353 354 354 355 355 355 355 354 353 352 351 350 348 348 349 352 356 1 2 1 356 351 348 345 343 341 338 337 337 339 342 347